This is the latest recevied weather packets stored in our database for station/object SPDRWX. If no packets are shown the sender has not sent any weather packets the latest 10 day(s).
| Time | Temp. | Humidity | Pressure | Rain* | Wind** | Luminosity | Snow |
|---|---|---|---|---|---|---|---|
| 1777996817 | 2.78° C | 83% | 1009.1 hPa | 9.4 mm | - | - | - |
| 1777996213 | 2.78° C | 84% | 1009.1 hPa | 8.89 mm | - | - | - |
| 1777995913 | 2.22° C | 84% | 1009 hPa | 8.64 mm | - | - | - |
| 1777995611 | 2.22° C | 84% | 1009 hPa | 8.38 mm | - | - | - |
| 1777995011 | 2.22° C | 85% | 1008.7 hPa | 7.87 mm | - | - | - |
| 1777993202 | 1.11° C | 85% | 1008.7 hPa | 7.11 mm | - | - | - |
| 1777992901 | 1.11° C | 85% | 1008.6 hPa | 7.11 mm | - | - | - |
| 1777992298 | 1.11° C | 85% | 1008.5 hPa | 7.11 mm | - | - | - |
| 1777991393 | 1.11° C | 85% | 1008.5 hPa | 7.11 mm | - | - | - |
| 1777991095 | 1.11° C | 85% | 1008.6 hPa | 7.11 mm | - | - | - |
| 1777990790 | 1.11° C | 85% | 1008.5 hPa | 7.11 mm | - | - | - |
| 1777989888 | 1.11° C | 85% | 1008.3 hPa | 7.11 mm | - | - | - |
| 1777989285 | 1.11° C | 85% | 1008.2 hPa | 7.11 mm | - | - | - |
| 1777988682 | 1.11° C | 85% | 1008.1 hPa | 7.11 mm | - | - | - |
| 1777988383 | 1.11° C | 85% | 1008 hPa | 7.11 mm | - | - | - |
| 1777988078 | 1.11° C | 85% | 1008.1 hPa | 7.11 mm | - | - | - |
| 1777987777 | 1.11° C | 85% | 1008 hPa | 7.11 mm | - | - | - |
| 1777987476 | 0.56° C | 85% | 1008.1 hPa | 7.11 mm | - | - | - |
| 1777986874 | 0.56° C | 85% | 1007.9 hPa | 7.11 mm | - | - | - |
| 1777986271 | 0.56° C | 84% | 1008 hPa | 7.11 mm | - | - | - |
| 1777985667 | 1.11° C | 84% | 1008.1 hPa | 7.11 mm | - | - | - |
| 1777985368 | 1.11° C | 84% | 1008 hPa | 7.11 mm | - | - | - |
| 1777985066 | 1.11° C | 84% | 1008 hPa | 7.11 mm | - | - | - |
| 1777984464 | 1.11° C | 84% | 1008 hPa | 7.11 mm | - | - | - |
| 1777984163 | 1.11° C | 84% | 1008.1 hPa | 7.11 mm | - | - | - |
* Rain since midnight (hover to see other rain measurements)
** Current wind speed in m/s (hover to see current wind gust speed)